Location: Góry Miechowskie
(50.3599°N, 20.1803°E)
Time: 08:36:07
(UTC+00:00)

A-11 Canister half - Pass Details

Date: 20 September 2024
Orbit: 1515 x 1684 km, 47.2° (Epoch: 09 October)

Event Time Altitude Azimuth Distance (km) Brightness Sun altitude
Rises 16:32:39 0° 235° (SW) 4,757 12.6 0.5°
Reaches altitude 10° 16:35:49 10° 231° (SW) 3,752 11.9 0.0°
Maximum altitude 16:44:58 57° 156° (SSE) 1,759 9.3 -1.4°
Drops below altitude 10° 16:53:55 10° 82° (E) 3,680 10.4 -2.9°
Enters shadow 16:56:22 - 79° (ENE) 4,457 10.8 -3.3°
Sets 16:57:00 0° 78° (ENE) 4,661 - -3.4°
